Probability
0 0 0 0 0 0 0 0 0 0 0 1 1 1 0 0 0 0 0 0 0 0 0 0 0 0 0 0 0 0 0 0 0 0 0 0 0 0 0 0 0 0 0
0 0 0 0 0 0 0 0 0 0 0 0 0 0 0 0 0 0 0 0 0 0 0 0 0 0 0 0 0 0 0 0 0 0 0 0 0 0 0 0 0 0 0
0 0 0 0 0 0 0 0 0 0 0 0 0 0 0 0 0 0 0 0 0 0 0 0 0 0 0 0 0 0 0 0 0 0 0 0 0 0 0 0 0 0 0
0 0 0 0 0 0 0 0 0 0 0 0 0 0 0 0 0 0 0 0 0 0 0 0 0 0 0 0 0 0 0 0 0 0 0 0 0 0 0 0 0 0 0
0 0 0 0 0 0 0 0 0 0 0 0 0 0 0 0 0 0 0 0 0 0 0 0 0 0 0 0 0 0 0 0 0 0 0 0 0 0 0 0 0 0 0
0 1 1 1 1 0 0 0 0 0 0 0 0 0 0 0 0 0 0 0 0 0 0 0 0 0 0 0 0 0 0 0 0 0 0 0 0 0 0 0 0 0 0
0 2 3 3 2 1 0 0 0 0 0 0 0 0 0 0 0 0 0 0 0 0 0 0 0 0 0 0 0 0 0 0 0 0 0 0 0 0 0 0 0 0 0
2 4 5 5 3 2 1 0 0 0 0 0 0 0 0 0 0 0 0 0 0 0 0 0 0 0 0 0 0 0 0 0 0 0 0 0 0 0 0 0 0 0 0
5 6 7 6 4 3 2 1 0 0 0 0 0 0 0 0 0 0 0 0 0 0 0 0 0 0 0 0 0 0 0 0 0 0 0 0 0 0 0 0 0 0 0
8 8 8 7 5 4 2 1 0 0 0 0 0 0 0 0 0 0 0 0 0 0 0 0 0 0 0 0 0 0 0 0 0 0 0 0 0 0 0 0 0 0 0
13 11 9 9 7 5 2 1 0 0 0 0 0 0 0 0 0 0 0 0 0 0 0 0 0 0 0 0 0 0 0 0 0 0 0 0 0 0 0 0 0 0 0
18 15 13 12 10 7 3 2 1 1 0 0 0 0 0 0 0 0 0 0 0 0 0 0 0 0 0 0 0 0 0 0 0 0 0 0 0 0 0 0 0 0 0
24 21 17 15 13 11 9 7 5 4 2 1 1 0 0 0 1 1 0 0 0 0 0 0 0 0 0 0 0 0 0 0 0 0 0 0 0 0 0 0 0 0 0
29 24 18 17 17 17 16 15 11 7 4 3 3 1 0 0 1 1 0 0 0 0 0 0 0 0 0 0 0 0 0 0 0 0 0 0 0 0 0 0 0 0 0
33 26 19 17 20 23 23 21 16 10 6 5 5 4 1 0 1 1 0 0 0 0 0 0 0 0 0 0 0 0 0 0 0 0 0 0 0 0 0 0 0 0 0
33 29 22 18 20 23 23 23 19 12 7 6 6 5 3 1 0 0 0 0 0 0 0 0 0 0 0 0 0 0 0 0 0 0 0 0 0 0 0 0 0 0 0
34 31 25 20 19 20 20 22 22 15 8 6 5 5 3 1 0 0 0 0 0 0 0 0 0 0 0 0 0 0 0 0 0 0 0 0 0 0 0 0 0 0 0
34 32 26 20 18 19 19 23 24 19 11 7 6 5 2 1 0 0 0 0 0 0 0 0 0 0 0 0 0 0 0 0 0 0 0 0 0 0 0 0 0 0 0
35 33 28 22 18 18 21 25 26 22 15 10 8 4 2 1 0 0 0 0 0 0 0 0 0 0 0 0 0 0 0 0 0 0 0 0 0 0 0 0 0 0 0
35 35 33 27 23 23 25 28 26 19 15 12 8 4 2 1 0 0 1 1 0 0 0 0 0 0 0 0 0 0 0 0 0 0 0 0 0 0 0 0 0 0 0
35 35 35 31 29 29 29 27 22 16 15 15 10 6 3 2 1 2 2 3 2 1 1 1 1 0 0 0 0 0 0 0 0 0 0 0 0 0 0 0 0 0 0
36 34 31 30 30 30 27 23 19 16 16 16 13 9 6 4 3 3 3 4 4 3 2 2 2 1 0 0 0 0 0 0 0 0 0 0 0 0 0 0 0 0 0
33 29 25 25 26 25 22 18 15 13 12 11 12 10 7 5 4 3 4 5 6 5 4 4 3 3 2 1 0 0 0 0 0 0 0 0 0 0 0 0 0 0 0
23 21 19 21 21 20 18 14 10 8 7 7 10 10 7 4 4 5 6 7 7 7 7 6 5 6 7 5 2 1 1 0 0 0 0 0 0 0 0 0 0 0 0
18 16 16 17 17 15 14 13 10 8 7 7 9 8 5 4 4 6 8 9 9 9 10 10 9 9 9 8 5 3 2 0 0 0 0 0 0 0 0 0 0 0 0
16 14 14 15 15 14 13 11 11 9 7 7 8 6 4 3 4 6 8 9 9 9 10 12 11 9 9 9 7 5 2 0 1 1 1 0 0 0 0 0 0 0 0
Wind_Speed
14 16 17 14 14 14 14 14 14 15 15 14 14 13 12 11 11 10 10 10 9 9 9 9 9 9 10 10 11 11 11 11 12 12 13 13 13 13 12 12 12 13 15
17 18 18 15 15 14 14 14 14 14 14 14 13 13 12 11 10 10 10 9 9 10 10 10 10 10 10 11 11 11 11 11 12 12 13 13 13 12 11 10 10 12 14
19 19 18 16 15 15 14 14 14 14 14 13 13 12 11 11 10 10 9 10 10 10 10 11 11 11 11 11 11 11 11 11 11 11 10 10 12 12 11 13 14 14 14
19 19 17 18 16 15 14 14 14 14 13 13 12 11 11 10 10 10 10 10 10 11 11 11 11 12 11 11 11 11 11 11 10 9 7 9 10 12 12 13 13 13 13
18 17 18 18 17 16 15 14 14 13 13 12 12 11 10 10 10 10 10 10 11 11 11 12 12 12 12 11 11 11 11 10 7 6 9 9 10 11 12 12 13 13 13
17 17 19 18 17 16 15 14 14 13 13 12 11 11 10 10 10 10 10 11 11 11 12 12 12 12 11 11 11 11 10 8 7 8 9 9 10 11 12 12 12 12 12
17 17 20 18 17 16 15 14 14 13 12 12 11 10 10 10 10 10 11 11 11 11 11 11 11 10 10 10 10 10 8 3 5 8 8 9 11 11 11 11 11 12 12
16 17 18 17 16 16 15 14 13 13 12 11 10 10 10 10 10 10 10 10 10 10 10 10 10 10 10 10 10 9 7 4 7 8 8 10 11 10 11 11 11 11 11
15 15 16 17 16 15 14 13 13 12 12 11 10 10 10 10 10 10 10 10 10 10 10 9 9 9 9 9 9 8 6 1 5 6 8 9 10 10 11 10 10 10 11
13 14 15 15 15 14 14 13 12 12 11 11 10 10 10 10 10 10 10 10 9 9 9 9 8 8 8 8 9 8 7 5 5 7 6 10 10 10 10 9 9 9 10
12 12 13 14 13 12 13 14 13 12 11 11 10 10 10 8 10 9 10 10 9 8 8 8 8 7 8 9 8 8 7 3 6 5 7 12 9 9 9 8 8 8 9
15 14 12 12 13 12 10 11 9 10 10 9 8 9 6 5 5 7 11 9 8 8 8 7 7 7 7 7 9 9 3 4 5 5 8 10 8 8 8 8 7 8 8
16 14 13 12 12 11 8 8 6 5 7 7 8 7 5 5 5 6 6 7 7 8 7 8 8 4 3 3 2 3 3 3 3 4 9 9 8 8 8 8 7 7 8
15 14 13 12 10 9 8 7 7 6 6 6 7 7 6 4 4 4 3 5 5 4 3 3 3 3 3 3 3 3 3 2 3 4 8 9 7 8 8 7 7 7 8
15 14 12 11 11 9 7 6 7 6 6 6 6 6 6 5 4 4 3 3 3 3 4 3 3 3 3 3 3 4 3 3 3 3 7 9 7 7 7 7 7 7 8
14 14 12 12 12 10 7 6 6 6 5 6 6 7 7 5 4 4 5 4 3 3 2 2 3 3 3 2 2 3 3 4 4 3 5 9 8 7 7 7 7 7 8
15 14 14 12 11 11 9 8 6 6 7 6 6 7 7 6 5 4 4 5 4 3 3 3 3 3 3 3 3 3 2 3 4 3 4 5 8 9 7 7 7 7 7
14 14 14 12 13 12 10 9 6 6 6 6 6 6 7 6 6 5 4 4 4 4 4 3 3 3 3 2 3 2 2 3 4 4 4 4 4 6 9 9 7 7 7
14 15 15 13 14 13 11 9 7 6 6 5 5 6 7 7 7 6 4 3 5 4 4 4 4 3 3 2 3 3 3 3 4 5 4 5 4 4 5 9 9 8 8
14 14 15 14 14 13 10 8 6 6 6 6 6 6 7 7 8 7 5 5 6 4 4 3 2 2 2 3 3 2 3 3 4 4 5 5 5 6 6 6 7 9 11
13 14 15 14 13 11 8 8 8 8 7 7 7 8 8 7 8 7 5 6 6 5 4 5 4 5 4 3 3 3 4 5 4 4 4 4 5 5 5 5 5 4 7
14 14 14 14 14 13 9 7 6 6 6 7 6 7 8 8 8 8 7 6 6 4 5 5 5 4 3 4 4 3 3 5 5 5 4 5 5 5 5 6 5 5 5
13 14 13 14 13 13 11 8 6 5 5 6 7 7 8 8 9 7 7 7 5 6 6 6 6 6 5 4 4 3 3 2 3 5 5 5 5 4 5 4 6 6 6
12 12 13 12 12 12 12 11 11 9 9 9 8 6 7 8 8 8 7 7 6 6 5 7 7 5 5 5 4 4 4 3 3 2 5 5 6 6 5 4 5 5 6
11 11 11 11 12 12 12 12 12 10 9 7 7 8 7 7 8 8 7 6 6 6 6 6 5 6 5 6 4 4 4 3 5 4 2 3 4 5 4 5 3 3 4
9 9 10 11 11 12 12 13 13 13 11 10 10 9 8 6 6 8 8 7 7 6 6 6 6 7 6 5 5 4 4 4 4 4 3 3 3 3 3 2 3 3 3
Wind_Direction
152 143 143 144 139 134 131 129 129 129 131 131 129 126 123 120 118 116 114 112 110 109 109 109 110 108 110 114 113 111 110 112 112 110 109 109 109 111 115 121 124 111 112
146 141 145 146 142 138 134 132 130 129 129 128 128 125 122 120 117 115 115 113 110 108 108 109 108 108 110 113 113 113 113 115 115 115 117 115 110 110 111 110 97 105 116
144 142 149 148 144 141 137 135 134 133 130 128 127 126 124 121 120 119 117 115 111 109 109 108 108 108 109 111 112 112 113 115 118 126 136 121 113 110 108 104 105 113 114
146 146 151 147 147 143 140 138 137 136 134 131 130 128 125 123 120 118 116 115 112 110 108 108 107 107 108 110 110 111 113 117 127 155 139 116 115 114 114 112 114 115 114
146 146 142 150 149 146 144 142 139 137 136 134 132 130 127 124 119 117 114 112 111 111 110 108 107 105 106 108 109 109 111 119 147 161 110 109 108 116 116 116 116 115 116
147 149 143 154 150 149 148 146 143 141 139 136 133 132 128 124 122 118 114 112 111 111 109 108 107 106 106 107 109 110 114 135 174 113 110 114 111 117 116 117 117 116 114
153 149 145 154 152 151 151 149 146 144 142 138 135 133 129 126 122 118 116 114 113 112 111 110 109 108 109 110 111 114 118 152 112 108 113 109 106 115 115 116 118 117 116
154 148 143 154 155 155 155 153 150 147 144 141 139 134 130 125 123 120 119 117 117 116 113 110 108 107 109 111 114 117 135 187 122 115 112 106 109 118 116 118 121 120 122
157 149 151 159 159 159 158 156 155 151 146 143 141 136 132 129 127 126 124 121 119 119 117 113 109 108 107 112 117 120 124 262 128 118 115 108 118 123 123 124 125 126 126
162 158 158 164 161 164 162 160 158 153 150 146 144 141 137 136 134 134 139 125 125 124 121 118 114 113 113 116 123 128 149 211 129 127 115 112 126 129 129 130 130 130 130
169 168 168 164 163 168 164 156 163 159 155 156 155 149 162 161 146 155 122 130 133 130 124 121 122 126 135 130 130 144 185 176 119 110 98 111 134 135 134 134 134 135 135
174 175 172 168 166 170 164 158 168 170 162 179 159 161 167 143 142 128 123 139 139 136 136 126 131 163 196 144 145 182 175 138 133 122 108 125 138 141 141 140 142 141 140
175 176 175 172 171 171 167 165 167 169 163 173 161 161 154 155 151 144 147 150 155 165 161 148 179 174 144 108 144 142 118 148 126 120 120 139 148 150 150 150 150 149 145
177 179 178 170 169 175 175 168 168 170 170 169 159 172 163 167 162 145 155 156 167 165 151 168 159 136 125 132 135 124 137 152 129 116 123 144 156 158 156 155 156 155 152
179 178 177 173 171 174 176 180 174 174 174 167 163 172 177 173 171 157 159 169 180 154 169 179 165 146 156 159 155 139 134 116 129 143 128 149 162 166 164 163 165 166 163
179 177 173 176 173 173 177 184 177 178 178 175 173 172 187 182 169 174 175 181 182 178 170 179 163 167 182 158 165 144 165 152 141 164 146 152 169 176 176 178 179 178 177
180 177 174 174 174 176 183 189 185 185 182 186 174 174 187 193 174 188 183 189 182 167 166 193 178 182 184 178 165 161 175 170 143 165 170 162 165 175 184 188 187 189 192
180 178 179 176 178 182 187 191 189 191 184 189 181 181 190 194 188 199 195 194 174 190 191 184 204 191 178 187 171 171 163 161 159 172 185 186 172 168 177 188 196 198 203
183 181 181 180 180 185 186 187 189 186 190 192 192 192 187 196 195 205 205 182 193 200 201 212 181 203 184 189 183 174 181 177 174 182 187 189 182 193 178 168 190 202 211
183 183 183 182 184 186 184 183 185 191 192 197 200 199 195 200 200 208 203 193 210 203 202 217 182 199 220 209 222 162 192 181 201 188 202 187 190 199 203 185 187 195 206
182 185 186 187 185 183 182 187 188 190 193 198 202 196 200 208 201 210 217 189 214 211 210 206 207 192 210 201 215 200 197 204 203 197 210 208 197 202 204 203 217 202 189
185 187 188 190 188 188 188 190 193 188 191 196 203 195 203 208 208 206 212 212 206 206 208 213 217 226 207 205 236 231 212 189 203 200 194 207 214 206 208 206 207 209 232
190 191 192 194 191 192 186 183 181 178 192 195 200 199 204 209 210 216 208 219 210 216 203 209 211 220 223 209 234 258 257 228 177 178 202 204 203 215 221 208 213 206 217
191 189 193 196 196 193 188 189 189 194 199 200 199 194 196 207 210 210 214 214 215 222 205 213 208 223 228 225 207 243 286 333 282 186 189 192 197 210 219 220 212 203 214
186 186 188 194 197 197 194 194 198 204 206 201 197 191 199 201 207 210 209 212 213 223 215 227 204 229 227 234 226 215 217 226 252 271 219 188 188 197 194 208 218 213 203
180 183 186 190 194 195 198 200 203 205 203 199 199 195 199 199 205 206 209 210 214 219 210 217 218 218 237 242 250 239 230 232 234 243 237 217 200 172 185 200 220 209 209